Location: Arleux
(50.3632°N, 2.8721°E)
Time: 01:59:54
(UTC+00:00)

N. Korean satellite - Pass Details

Date: 06 March 2021
Orbit: 453 x 499 km, 97.2° (Epoch: 11 April)

Event Time Altitude Azimuth Distance (km) Brightness Sun altitude
Rises 05:36:18 0° 10° (N) 2,529 10.4 -8.0°
Reaches altitude 10° 05:38:22 10° 7° (N) 1,654 9.4 -7.7°
Maximum altitude 05:41:53 65° 286° (WNW) 536 6.5 -7.1°
Drops below altitude 10° 05:45:26 10° 205° (SSW) 1,667 9.0 -6.6°
Sets 05:47:31 0° 202° (SSW) 2,550 10.0 -6.2°
